Track COSMOS 2508 now! 10-day predictions COSMOS 2508 is classified as:
1 40922U 15050C 26257.15692416 .00000039 00000-0 20685-3 0 9990 2 40922 82.4922 22.8436 0014411 203.4963 156.5460 12.42886667497938